Location: Newark
(52.5694°N, 1.3190°W)
Time: 21:08:20
(UTC+00:00)

N. Korean satellite - Pass Details

Date: 01 February 2020
Orbit: 456 x 505 km, 97.2° (Epoch: 23 February)

Event Time Altitude Azimuth Distance (km) Brightness Sun altitude
Rises 18:04:25 0° 210° (SSW) 2,471 10.8 -11.4°
Reaches altitude 10° 18:07:10 10° 235° (SW) 1,609 10.4 -11.8°
Maximum altitude 18:09:10 15° 271° (W) 1,354 10.1 -12.1°
Drops below altitude 10° 18:11:13 10° 307° (NW) 1,629 9.8 -12.4°
Sets 18:14:02 0° 332° (NNW) 2,522 10.4 -12.8°
